Monday, October 21, 2019, 9:38 PM EDT
Back to Local

KMTP, Montauk Airport

Location: Montauk, NY, United States Lat: 41.067
Local Time: 9:38 PM EDT ( 1:38 GMT) Lon: -71.917
Time Zone: US/Eastern Elev: 6 ft

Show me the last for .
Show Coded

Time T Td Feel RH Dir Speed Gust Alt SLP Vis Weather Sky Remarks
2019-10-21 20:54 58 45 - 61 60° 8 - 30.13 30.13 0 None
2019-10-21 19:54 59 47 - 64 60° 8 17 30.12 30.11 0 6-hr Min Temp (8pm): 59.0°F
6-hr Max Temp (8pm): 64.9°F
2019-10-21 18:54 60 47 - 61 50° 7 - 30.12 30.12 0 None
2019-10-21 17:54 61 45 - 55 60° 8 - 30.09 30.09 0 None
2019-10-21 16:54 63 47 - 55 50° 6 - 30.09 30.09 0 None
2019-10-21 15:54 64 47 - 53 60° 10 - 30.07 30.06 0 None
2019-10-21 14:54 65 48 - 54 50° 7 18 30.05 30.05 0 None
2019-10-21 13:54 63 49 - 60 60° 10 20 30.06 30.06 0 6-hr Min Temp (2pm): 55.9°F
6-hr Max Temp (2pm): 64.0°F
2019-10-21 12:54 62 50 - 64 30° 8 - 30.07 30.06 0 None
2019-10-21 11:54 62 51 - 67 30° 8 17 30.05 30.05 0 None
2019-10-21 10:54 59 51 - 74 40° 10 18 30.04 30.03 0 None
2019-10-21 09:54 58 51 - 77 40° 12 21 30.03 30.03 0 None
2019-10-21 08:54 57 52 - 83 40° 10 25 30.03 30.03 0 None
2019-10-21 07:54 56 52 - 86 30° 15 22 30.03 30.03 0 24-hr Precip Total (8am): 0.17"
6-hr Min Temp (8am): 55.0°F
6-hr Max Temp (8am): 57.0°F
2019-10-21 06:54 56 52 - 86 50° 12 18 30.01 30.01 0 None
2019-10-21 05:54 55 52 - 89 40° 10 18 29.99 29.99 0 None
2019-10-21 04:54 56 52 - 86 30° 13 20 29.99 29.99 0 None
2019-10-21 03:54 56 52 - 86 40° 12 20 29.96 29.96 0 None
2019-10-21 02:54 56 53 - 90 30° 12 20 29.97 29.97 0 None
2019-10-21 01:54 56 54 - 93 50° 10 18 29.98 29.97 0 1-hr Precip Total: 0.05"
6-hr Precip Total (2am): 0.13"
6-hr Min Temp (2am): 55.0°F
6-hr Max Temp (2am): 57.9°F
2019-10-21 00:54 55 53 - 93 40° 9 21 30.00 29.99 0 24-hr Min Temp (1am): 39.9°F
24-hr Max Temp (1am): 63.0°F
2019-10-20 23:54 57 53 - 86 60° 8 - 30.01 30.01 0 None
2019-10-20 22:54 57 53 - 86 70° 6 - 30.01 30.01 0 1-hr Precip Total: 0.03"
6-hr Precip Total (11pm): 0.08"
2019-10-20 21:54 57 54 - 89 70° 5 - 30.01 30.01 0 1-hr Precip Total: 0.01"

Support USWX by starting your Amazon purchase here.